Showing default

HULIANWANG DIGUI-16, 62976

Orbit data source: Space-Track

HULIANWANG DIGUI-16, 62976 is a payload satellite owned by Zhongguo Xingwang (CN) in LEO that was launched on Tue, 11 Feb 2025 UTC via a CHANG ZHENG 8A launch vehicle from the Wenchang Satellite Launch Center (WSC). Payload-class satellites include a variety of spacecraft equipped with specific instruments for various scientific and technological missions. These include communications satellites like Starlink; space stations such as the ISS; scientific satellites like the Hubble; Earth observation satellites from companies like Planet Labs, Umbra, and HawkEye 360; GPS; miniature CubeSats for education and research; and military/defense satellites.

Loading next visibility...
Identifier
62976, 2025-030F
Orbit
LEO
Country
Flag of CNCN / PRC
Related business
Manufacturer
CAST
Mission
Operational Civil Communications
Bus & Motor
XINGWANG C, Unknown motor
Mass
~700 kg wet, ~700 kg dry
Launch date (UTC)
2025-02-11 (1 year ago)
Launch vehicle
CHANG ZHENG 8A
Launch site
Wenchang Satellite Launch Center (WSC)
Object type
Payload
Rocket body
Debris
Shape & HBR
Box + 2 Pan, 2.1 m
Radar Cross Section
5.935 m², Large (>1 m²)

Expand to show TLE details & history
Last TLE update: 8 hours ago

TLE from 8 hours ago
0 HULIANWANG DIGUI-16
1 62976U 25030F   26127.22071599 -.00000078  00000-0  98586-4 0  9999
2 62976  50.0069  22.5392 0001079  28.7981 331.2951 13.29321388 60412
Epoch: 2026-05-07T05:17Z
TLE epoch observation values (Epoch: 2026-05-07T05:17:49.861Z)
Latitude
0.00001°
Longitude
78.01148°
Altitude
1,149.118 km
Speed
7.28 km/s
True Right ascension
01h 30m 09s
True Declination
0° 00' 00"
Sunlit
Object was in daylight at epoch
Visualization orbit readout
Latitude
Unknown
Longitude
Unknown
Altitude
Unknown
Speed
Unknown
Apparent Right ascension
Unknown
Apparent Declination
Unknown
Sunlit
N/A
Visualization observer readout
Local Sidereal Time
21:28:01
Azimuth
Unknown
Elevation
Unknown
Doppler factor
Unknown
Orbital elements
Apogee altitude
1,150.841 km
Perigee altitude
1,149.216 km
Semi-major axis
7,528.165 km
Eccentricity
0.00011
Inclination
50.0069°
RAAN
22.5392°
Arg. of periapsis
28.7981°
True anomaly
331.28916°
Mean anomaly
331.2951°
Eccentric anomaly
331.29213°
Mean motion
3.32284 °/min
Orbital period
108.34 mins
BSTAR
0.000098586
Loading maneuver chart data...
Computing Atmospheric mass density...
Loading historical data...
Loading historical data...
Loading historical data...
Loading historical data...
Loading historical data...
Loading historical data...
Loading historical data...

Documentation

Showing up to 5 results
|